Location: *
(47.2969°N, 10.2930°E)
Time: 08:09:56
(UTC+00:00)

Cosmos 2369 Rocket - Pass Details

Date: 09 April 2020
Orbit: 829 x 852 km, 71.0° (Epoch: 24 May)

Event Time Altitude Azimuth Distance (km) Brightness Sun altitude
Rises 18:43:16 0° 325° (NW) 3,421 6.4 -7.8°
Reaches altitude 10° 18:45:58 10° 315° (NW) 2,478 5.9 -8.3°
Maximum altitude 18:50:53 31° 256° (WSW) 1,443 4.1 -9.0°
Drops below altitude 10° 18:55:45 10° 196° (SSW) 2,449 4.5 -9.8°
Sets 18:58:25 0° 186° (S) 3,375 5.1 -10.2°
